EW9798 Weather Reports


Display with metric or nautical units.
time (UTC)temp
F
wind
direction
speed
MPH
gust
MPH
rain 1hr
in
rain 24hr
in
rain mn
in
humidity
%
barometer
mb
20260504044539 63 129 1.0 5.0 0.00 0.00 0.00 59 1010.1
20260504043112 64 117 4.0 6.0 0.00 0.00 0.00 58 1009.9
20260504041531 65 112 1.0 5.0 0.00 0.00 0.00 57 1009.6
20260504040109 66 134 3.0 6.0 0.00 0.00 0.00 54 1009.3
20260504034531 69 151 3.0 5.0 0.00 0.00 0.00 50 1009.1
20260504033031 72 161 2.0 4.0 0.00 0.00 0.00 44 1008.9
20260504031538 76 189 2.0 4.0 0.00 0.00 0.00 37 1008.7
20260504030031 78 124 3.0 6.0 0.00 0.00 0.00 35 1008.6
20260504024607 79 113 4.0 9.0 0.00 0.00 0.00 34 1008.6
20260504023033 80 109 4.0 8.0 0.00 0.00 0.00 32 1008.7
20260504020031 82 110 4.0 9.0 0.00 0.00 0.00 32 1008.9
20260504014537 84 103 2.0 8.0 0.00 0.00 0.00 31 1009.1
20260504013029 85 102 3.0 9.0 0.00 0.00 0.00 30 1009.2
20260504011531 86 77 3.0 8.0 0.00 0.00 0.00 28 1009.3
20260504010037 87 84 4.0 8.0 0.00 0.00 0.00 28 1009.5
20260504004530 88 82 3.0 9.0 0.00 0.00 0.00 29 1009.6
20260504001607 85 93 5.0 10.0 0.00 0.00 0.00 29 1009.8
20260504000030 85 106 3.0 8.0 0.00 0.00 0.00 28 1010.0
20260503234531 84 97 5.0 10.0 0.00 0.00 0.00 29 1010.2
20260503231530 86 74 3.0 9.0 0.00 0.00 0.00 27 1010.6
20260503224536 85 115 3.0 11.0 0.00 0.00 0.00 27 1011.1
20260503223032 84 111 4.0 12.0 0.00 0.00 0.00 27 1011.4
20260503221529 85 44 5.0 12.0 0.00 0.00 0.00 28 1011.7
20260503220030 85 77 4.0 11.0 0.00 0.00 0.00 26 1011.9
20260503213107 85 136 6.0 12.0 0.00 0.00 0.00 26 1012.3
20260503211529 86 143 4.0 11.0 0.00 0.00 0.00 27 1012.5
20260503203031 85 80 4.0 13.0 0.00 0.00 0.00 30 1013.0
20260503194535 84 133 4.0 11.0 0.00 0.00 0.00 36 1013.4
20260503193031 80 350 3.0 8.0 0.00 0.00 0.00 44 1013.6
20260503190036 77 321 3.0 6.0 0.00 0.00 0.00 52 1014.1
20260503184529 75 327 2.0 6.0 0.00 0.00 0.00 54 1014.3
20260503181557 73 308 1.0 4.0 0.00 0.00 0.00 54 1014.6
20260503180105 72 332 1.0 5.0 0.00 0.00 0.00 53 1014.8
20260503174530 71 298 0.0 2.0 0.00 0.00 0.00 54 1014.9
20260503173030 70 316 0.0 4.0 0.00 0.00 0.00 56 1015.1
20260503171530 68 10 0.0 4.0 0.00 0.00 0.00 59 1015.2
20260503120105 48 135 1.0 3.0 0.00 0.00 0.00 95 1015.6
20260503100109 50 135 2.0 5.0 0.00 0.00 0.00 92 1015.5
20260503081529 54 157 0.0 0.0 0.00 0.00 0.00 89 1015.3
20260503071529 55 135 0.0 4.0 0.00 0.00 0.00 85 1015.4